KLM618 KJFK-EHAM

Flight info

Callsign KLM618
Flight time N/A
Altitude 35000
Route MERIT DCT HFD DCT PUT DCT WITCH DCT ALLEX DCT ALLRY/M084F360 DCT 51N050W 54N040W 55N030W 55N020W DCT DOGAL/N0483F370 DCT BEXET DCT INKUR DCT LIFFY DCT DOLAS L603 LAMSO
Aircraft B77W/H-SDE1E2E3FGHIJ2J3J4J5M1RWXY/LB1D1

Departure

Time 2026-05-09 18:16
Airport John F. Kennedy International Airport (KJFK)

Arrival

Time N/A
Airport Amsterdam Airport Schiphol (EHAM)
Time Latitude Longitude Altitude Speed Heading
2026-05-09 17:45 40.63982 -73.78245 28 ft 0 kts 61°
2026-05-09 18:00 40.63982 -73.78246 37 ft 2 kts 61°
2026-05-09 18:00 40.63969 -73.78276 27 ft 4 kts 61°
2026-05-09 18:00 40.63959 -73.78301 25 ft 4 kts 74°
2026-05-09 18:01 40.63958 -73.78333 25 ft 4 kts 118°
2026-05-09 18:01 40.63975 -73.78358 27 ft 4 kts 150°
2026-05-09 18:01 40.63970 -73.78354 26 ft 4 kts 150°
2026-05-09 18:01 40.63949 -73.78338 27 ft 2 kts 150°
2026-05-09 18:02 40.63948 -73.78338 27 ft 0 kts 150°
2026-05-09 18:04 40.63940 -73.78332 25 ft 3 kts 151°
2026-05-09 18:05 40.63910 -73.78313 28 ft 5 kts 158°
2026-05-09 18:05 40.63874 -73.78299 28 ft 5 kts 168°
2026-05-09 18:05 40.63833 -73.78291 28 ft 10 kts 171°
2026-05-09 18:05 40.63719 -73.78271 28 ft 18 kts 173°
2026-05-09 18:06 40.63597 -73.78259 28 ft 17 kts 187°
2026-05-09 18:06 40.63493 -73.78318 30 ft 14 kts 206°
2026-05-09 18:06 40.63439 -73.78311 30 ft 5 kts 121°
2026-05-09 18:06 40.63390 -73.78201 30 ft 20 kts 121°
2026-05-09 18:07 40.63331 -73.78031 29 ft 20 kts 101°
2026-05-09 18:07 40.63354 -73.77866 30 ft 17 kts 63°
2026-05-09 18:07 40.63440 -73.77759 30 ft 17 kts 31°
2026-05-09 18:07 40.63544 -73.77679 31 ft 17 kts 30°
2026-05-09 18:08 40.63647 -73.77598 29 ft 17 kts 31°
2026-05-09 18:08 40.63750 -73.77517 27 ft 17 kts 31°
2026-05-09 18:08 40.63853 -73.77436 29 ft 17 kts 31°
2026-05-09 18:08 40.63957 -73.77355 30 ft 17 kts 31°
2026-05-09 18:09 40.64060 -73.77275 28 ft 17 kts 31°
2026-05-09 18:09 40.64164 -73.77194 30 ft 17 kts 30°
2026-05-09 18:09 40.64267 -73.77114 28 ft 17 kts 31°
2026-05-09 18:09 40.64370 -73.77033 27 ft 17 kts 31°
2026-05-09 18:10 40.64483 -73.76987 26 ft 17 kts
2026-05-09 18:10 40.64557 -73.76950 28 ft 17 kts 30°
2026-05-09 18:10 40.64695 -73.76842 25 ft 17 kts 31°
2026-05-09 18:10 40.64798 -73.76761 28 ft 17 kts 31°
2026-05-09 18:11 40.64900 -73.76682 26 ft 17 kts 31°
2026-05-09 18:11 40.65003 -73.76601 28 ft 17 kts 31°
2026-05-09 18:11 40.65085 -73.76536 30 ft 10 kts 35°
2026-05-09 18:11 40.65104 -73.76486 26 ft 3 kts 105°
2026-05-09 18:12 40.65096 -73.76467 27 ft 0 kts 120°
2026-05-09 18:13 40.65095 -73.76463 27 ft 4 kts 120°
2026-05-09 18:14 40.65051 -73.76372 27 ft 14 kts 132°
2026-05-09 18:14 40.65001 -73.76373 27 ft 5 kts 210°
2026-05-09 18:14 40.65000 -73.76373 27 ft 0 kts 210°
2026-05-09 18:15 40.64931 -73.76426 27 ft 50 kts 211°
2026-05-09 18:15 40.64310 -73.76914 26 ft 156 kts 211°
2026-05-09 18:15 40.63111 -73.77851 241 ft 233 kts 211°
2026-05-09 18:16 40.61725 -73.78912 1520 ft 220 kts 212°
2026-05-09 18:16 40.60406 -73.79882 2771 ft 218 kts 211°
2026-05-09 18:16 40.59041 -73.80895 3487 ft 231 kts 214°
2026-05-09 18:16 40.57705 -73.82077 4377 ft 232 kts 216°
2026-05-09 18:17 40.56370 -73.83306 4926 ft 235 kts 217°
2026-05-09 18:17 40.55008 -73.84568 4998 ft 244 kts 215°
2026-05-09 18:17 40.53606 -73.85813 5004 ft 242 kts 215°
2026-05-09 18:17 40.52230 -73.87049 5000 ft 237 kts 216°
2026-05-09 18:18 40.50875 -73.88274 5001 ft 237 kts 214°
2026-05-09 18:18 40.49474 -73.89429 5009 ft 239 kts 213°
2026-05-09 18:18 40.48091 -73.90621 5012 ft 241 kts 216°
2026-05-09 18:18 40.46691 -73.91841 5010 ft 241 kts 214°
2026-05-09 18:19 40.45294 -73.93030 5016 ft 237 kts 215°
2026-05-09 18:19 40.42221 -73.94188 5401 ft 249 kts 168°
2026-05-09 18:19 40.40675 -73.93030 6289 ft 267 kts 141°
2026-05-09 18:20 40.39650 -73.90925 7186 ft 284 kts 115°
2026-05-09 18:20 40.39394 -73.88294 8026 ft 301 kts 88°
2026-05-09 18:20 40.40000 -73.85617 8850 ft 313 kts 65°
2026-05-09 18:20 40.41120 -73.83123 9676 ft 321 kts 59°
2026-05-09 18:21 40.42355 -73.80656 10416 ft 329 kts 57°
2026-05-09 18:21 40.43651 -73.78054 10761 ft 353 kts 57°
2026-05-09 18:21 40.45040 -73.75246 10984 ft 380 kts 57°
2026-05-09 18:21 40.46529 -73.72234 11219 ft 405 kts 57°
2026-05-09 18:22 40.48094 -73.69086 11780 ft 415 kts 55°
2026-05-09 18:22 40.50045 -73.66329 12247 ft 422 kts 33°
2026-05-09 18:22 40.52661 -73.64667 13124 ft 414 kts 12°
2026-05-09 18:22 40.55428 -73.63568 13768 ft 420 kts 15°
2026-05-09 18:23 40.58188 -73.62167 14481 ft 428 kts 19°
2026-05-09 18:23 40.60927 -73.60586 15355 ft 430 kts 20°
2026-05-09 18:23 40.63650 -73.58935 16243 ft 433 kts 21°
2026-05-09 18:23 40.66395 -73.57252 16968 ft 438 kts 20°
2026-05-09 18:24 40.69176 -73.55553 17348 ft 444 kts 20°
2026-05-09 18:24 40.71986 -73.53846 18197 ft 446 kts 20°
2026-05-09 18:24 40.74816 -73.52135 18936 ft 449 kts 20°
2026-05-09 18:25 40.80568 -73.48676 20177 ft 461 kts 20°
2026-05-09 18:25 40.83520 -73.46904 20707 ft 469 kts 20°
2026-05-09 18:25 40.86504 -73.45110 21372 ft 473 kts 21°
2026-05-09 18:25 40.89516 -73.43296 22044 ft 477 kts 21°
2026-05-09 18:26 40.92508 -73.41491 22669 ft 481 kts 21°
2026-05-09 18:26 40.95570 -73.39641 23293 ft 486 kts 21°
2026-05-09 18:26 40.98661 -73.37773 23838 ft 491 kts 21°
2026-05-09 18:26 41.01787 -73.35882 24272 ft 497 kts 21°
2026-05-09 18:27 41.04943 -73.33971 24764 ft 501 kts 21°
2026-05-09 18:27 41.07052 -73.32692 25103 ft 503 kts 20°
2026-05-09 18:27 41.11325 -73.30099 25794 ft 507 kts 20°
2026-05-09 18:27 41.14540 -73.28143 26291 ft 510 kts 20°
2026-05-09 18:28 41.17773 -73.26177 26805 ft 513 kts 20°
2026-05-09 18:28 41.21034 -73.24192 27193 ft 518 kts 20°
2026-05-09 18:28 41.24329 -73.22185 27588 ft 522 kts 20°
2026-05-09 18:28 41.27647 -73.20160 28028 ft 525 kts 20°
2026-05-09 18:29 41.30980 -73.18123 28467 ft 528 kts 19°
2026-05-09 18:29 41.34281 -73.15955 28807 ft 534 kts 26°
2026-05-09 18:29 41.37341 -73.13045 29109 ft 546 kts 38°
2026-05-09 18:29 41.40000 -73.09463 29422 ft 554 kts 48°
2026-05-09 18:30 41.42252 -73.05194 29743 ft 559 kts 58°
2026-05-09 18:30 41.44155 -73.00750 30091 ft 561 kts 60°
2026-05-09 18:30 41.46055 -72.96213 30519 ft 559 kts 60°
2026-05-09 18:30 41.47955 -72.91707 31096 ft 554 kts 59°
2026-05-09 18:31 41.49859 -72.87269 31732 ft 549 kts 58°
2026-05-09 18:31 41.51773 -72.82875 32294 ft 546 kts 58°
2026-05-09 18:31 41.53691 -72.78507 32766 ft 545 kts 58°
2026-05-09 18:31 41.55611 -72.74144 33232 ft 544 kts 58°
2026-05-09 18:32 41.57516 -72.69803 33698 ft 541 kts 58°
2026-05-09 18:32 41.59421 -72.65449 34084 ft 540 kts 58°
2026-05-09 18:32 41.61315 -72.61106 34355 ft 540 kts 58°
2026-05-09 18:32 41.63209 -72.56756 34584 ft 541 kts 58°
2026-05-09 18:33 41.65107 -72.52409 34849 ft 541 kts 57°
2026-05-09 18:33 41.68989 -72.43776 34955 ft 548 kts 57°
2026-05-09 18:34 41.72999 -72.34938 34971 ft 556 kts 57°
2026-05-09 18:34 41.77009 -72.26020 34969 ft 561 kts 57°
2026-05-09 18:35 41.80996 -72.17092 34952 ft 563 kts 57°
2026-05-09 18:35 41.85017 -72.08061 34960 ft 564 kts 57°
2026-05-09 18:36 41.89034 -71.99016 34961 ft 564 kts 57°
2026-05-09 18:36 41.93047 -71.89976 34946 ft 562 kts 56°
2026-05-09 18:37 41.97643 -71.81592 35007 ft 554 kts 45°
2026-05-09 18:37 42.03070 -71.74307 34976 ft 550 kts 39°
2026-05-09 18:38 42.08609 -71.67220 34978 ft 549 kts 39°
2026-05-09 18:38 42.14078 -71.60122 35014 ft 551 kts 40°
2026-05-09 18:40 42.36032 -71.31134 34989 ft 549 kts 40°
2026-05-09 18:41 42.41472 -71.23909 35015 ft 548 kts 40°
2026-05-09 18:41 42.46878 -71.16713 35025 ft 549 kts 40°
2026-05-09 18:42 42.52327 -71.09440 35012 ft 551 kts 40°
2026-05-09 18:42 42.57797 -71.02116 35013 ft 553 kts 40°
2026-05-09 18:43 42.63270 -70.94772 35030 ft 554 kts 40°
2026-05-09 18:43 42.68591 -70.87145 34987 ft 560 kts 47°
2026-05-09 18:44 42.73032 -70.78416 35014 ft 562 kts 55°
2026-05-09 18:44 42.77201 -70.69416 35038 ft 562 kts 55°
2026-05-09 18:45 42.81395 -70.60417 35012 ft 563 kts 54°
2026-05-09 18:45 42.85620 -70.51443 35002 ft 563 kts 54°
2026-05-09 18:46 42.89849 -70.42473 35015 ft 562 kts 54°
2026-05-09 18:46 42.94065 -70.33501 35021 ft 564 kts 54°
2026-05-09 18:47 42.98289 -70.24475 35026 ft 564 kts 54°
2026-05-09 18:47 43.02510 -70.15419 35016 ft 564 kts 54°
2026-05-09 18:48 43.06690 -70.06426 35021 ft 564 kts 54°
2026-05-09 18:48 43.10894 -69.97356 35028 ft 564 kts 54°
2026-05-09 18:49 43.15083 -69.88288 35029 ft 564 kts 54°
2026-05-09 18:49 43.19265 -69.79210 35055 ft 563 kts 54°
2026-05-09 18:50 43.23438 -69.70122 35036 ft 563 kts 54°
2026-05-09 18:50 43.27599 -69.61031 35040 ft 563 kts 54°
2026-05-09 18:51 43.31053 -69.53466 35050 ft 563 kts 54°
2026-05-09 18:51 43.35202 -69.44350 35058 ft 563 kts 54°
2026-05-09 18:52 43.39349 -69.35213 35055 ft 564 kts 54°
2026-05-09 18:52 43.43492 -69.26053 35055 ft 563 kts 54°
2026-05-09 18:53 43.47622 -69.16894 35070 ft 564 kts 54°
2026-05-09 18:53 43.51750 -69.07712 35065 ft 564 kts 54°
2026-05-09 18:54 43.55875 -68.98507 35062 ft 564 kts 54°
2026-05-09 18:54 43.59994 -68.89286 35082 ft 565 kts 54°
2026-05-09 18:55 43.64113 -68.80036 35074 ft 566 kts 54°
2026-05-09 18:55 43.68200 -68.70828 35064 ft 566 kts 54°
2026-05-09 18:56 43.72307 -68.61543 35070 ft 566 kts 54°
2026-05-09 18:56 43.76407 -68.52247 35077 ft 566 kts 54°
2026-05-09 18:57 43.80505 -68.42926 35082 ft 566 kts 54°
2026-05-09 18:57 43.84591 -68.33600 35085 ft 566 kts 55°
2026-05-09 18:58 43.88673 -68.24254 35093 ft 567 kts 55°
2026-05-09 18:58 43.92747 -68.14898 35082 ft 566 kts 55°
2026-05-09 18:59 43.96813 -68.05530 35088 ft 565 kts 54°
2026-05-09 18:59 44.00854 -67.96183 35107 ft 564 kts 54°
2026-05-09 19:00 44.04887 -67.86830 35072 ft 564 kts 55°
2026-05-09 19:00 44.10892 -67.72847 35094 ft 563 kts 55°
2026-05-09 19:01 44.14900 -67.63473 35115 ft 563 kts 54°
2026-05-09 19:01 44.18896 -67.54100 35093 ft 562 kts 55°
2026-05-09 19:02 44.22881 -67.44720 35094 ft 560 kts 54°
2026-05-09 19:02 44.26838 -67.35373 35098 ft 558 kts 55°
2026-05-09 19:03 44.30774 -67.26049 35095 ft 557 kts 54°
2026-05-09 19:03 44.34698 -67.16724 35097 ft 557 kts 54°
2026-05-09 19:04 44.38592 -67.07439 35100 ft 556 kts 54°
2026-05-09 19:04 44.42575 -66.98177 35094 ft 554 kts 50°
2026-05-09 19:05 44.47087 -66.89490 35098 ft 552 kts 47°
2026-05-09 19:05 44.51681 -66.80867 35101 ft 552 kts 47°
2026-05-09 19:06 44.56240 -66.72217 35102 ft 552 kts 48°
2026-05-09 19:06 44.60775 -66.63506 35094 ft 552 kts 48°
2026-05-09 19:07 44.65295 -66.54769 35092 ft 552 kts 48°
2026-05-09 19:07 44.69798 -66.46043 35099 ft 551 kts 48°
2026-05-09 19:08 44.74293 -66.37313 35098 ft 551 kts 48°
2026-05-09 19:08 44.78757 -66.28621 35091 ft 551 kts 48°
2026-05-09 19:09 44.83243 -66.19861 35091 ft 551 kts 48°
2026-05-09 19:09 44.87725 -66.11080 35098 ft 551 kts 48°
2026-05-09 19:10 44.92194 -66.02295 35099 ft 551 kts 48°
2026-05-09 19:10 44.96662 -65.93488 35097 ft 551 kts 49°
2026-05-09 19:11 45.01116 -65.84679 35101 ft 551 kts 49°
2026-05-09 19:11 45.05570 -65.75845 35090 ft 551 kts 49°
2026-05-09 19:12 45.09978 -65.67074 35089 ft 550 kts 49°
2026-05-09 19:12 45.14406 -65.58236 35108 ft 550 kts 49°
2026-05-09 19:13 45.18822 -65.49397 35084 ft 549 kts 49°
2026-05-09 19:13 45.23225 -65.40554 35100 ft 549 kts 49°
2026-05-09 19:14 45.27626 -65.31688 35107 ft 548 kts 49°
2026-05-09 19:14 45.32006 -65.22838 35084 ft 547 kts 49°
2026-05-09 19:15 45.36375 -65.13982 35096 ft 547 kts 49°
2026-05-09 19:15 45.40737 -65.05114 35082 ft 547 kts 50°
2026-05-09 19:16 45.45064 -64.96290 35095 ft 547 kts 50°
2026-05-09 19:16 45.49414 -64.87390 35086 ft 547 kts 50°
2026-05-09 19:17 45.53751 -64.78487 35087 ft 546 kts 50°
2026-05-09 19:17 45.58083 -64.69568 35107 ft 547 kts 51°
2026-05-09 19:18 45.62407 -64.60637 35087 ft 547 kts 51°
2026-05-09 19:18 45.66726 -64.51690 35063 ft 546 kts 51°
2026-05-09 19:19 45.71028 -64.42747 35098 ft 546 kts 51°
2026-05-09 19:19 45.75329 -64.33780 35064 ft 546 kts 51°
2026-05-09 19:20 45.79589 -64.24872 35058 ft 545 kts 51°
2026-05-09 19:20 45.83863 -64.15903 35063 ft 545 kts 52°
2026-05-09 19:21 45.88133 -64.06913 35056 ft 545 kts 52°
2026-05-09 19:21 45.92394 -63.97916 35057 ft 545 kts 52°
2026-05-09 19:22 45.96647 -63.88908 35062 ft 545 kts 52°
2026-05-09 19:22 46.00892 -63.79887 35076 ft 545 kts 52°
2026-05-09 19:23 46.05109 -63.70896 35065 ft 544 kts 52°
2026-05-09 19:23 46.09338 -63.61850 35074 ft 544 kts 53°
2026-05-09 19:24 46.13556 -63.52798 35073 ft 544 kts 53°
2026-05-09 19:24 46.17771 -63.43727 35079 ft 544 kts 53°
2026-05-09 19:25 46.21976 -63.34645 35075 ft 544 kts 53°
2026-05-09 19:25 46.26166 -63.25564 35070 ft 543 kts 53°
2026-05-09 19:26 46.30352 -63.16465 35089 ft 543 kts 54°
2026-05-09 19:26 46.34524 -63.07367 35076 ft 543 kts 54°
2026-05-09 19:27 46.38685 -62.98263 35070 ft 542 kts 54°
2026-05-09 19:27 46.42813 -62.89202 35064 ft 542 kts 54°
2026-05-09 19:28 46.46957 -62.80077 35080 ft 541 kts 54°
2026-05-09 19:28 46.51094 -62.70935 35084 ft 541 kts 54°
2026-05-09 19:29 46.55219 -62.61791 35088 ft 541 kts 54°
2026-05-09 19:29 46.59335 -62.52637 35101 ft 541 kts 55°
2026-05-09 19:30 46.63441 -62.43474 35088 ft 540 kts 55°
2026-05-09 19:30 46.67518 -62.34346 35095 ft 540 kts 55°
2026-05-09 19:31 46.71610 -62.25155 35096 ft 540 kts 55°
2026-05-09 19:31 46.75696 -62.15948 35100 ft 540 kts 55°
2026-05-09 19:32 46.79769 -62.06737 35097 ft 540 kts 56°
2026-05-09 19:32 46.83832 -61.97521 35097 ft 540 kts 56°
2026-05-09 19:33 46.87866 -61.88337 35106 ft 540 kts 56°
2026-05-09 19:33 46.91913 -61.79096 35094 ft 540 kts 56°
2026-05-09 19:34 46.95956 -61.69829 35098 ft 540 kts 56°
2026-05-09 19:34 46.99987 -61.60562 35095 ft 539 kts 56°
2026-05-09 19:35 47.04011 -61.51278 35099 ft 539 kts 56°
2026-05-09 19:35 47.08033 -61.41969 35094 ft 539 kts 56°
2026-05-09 19:36 47.12037 -61.32669 35101 ft 539 kts 56°
2026-05-09 19:36 47.16010 -61.23409 35104 ft 539 kts 57°
2026-05-09 19:37 47.19994 -61.14094 35085 ft 538 kts 57°
2026-05-09 19:37 47.23968 -61.04768 35096 ft 537 kts 57°
2026-05-09 19:38 47.27930 -60.95439 35101 ft 537 kts 57°
2026-05-09 19:38 47.31885 -60.86096 35100 ft 537 kts 57°
2026-05-09 19:39 47.35826 -60.76755 35104 ft 537 kts 57°
2026-05-09 19:39 47.39764 -60.67388 35104 ft 537 kts 57°
2026-05-09 19:40 47.43695 -60.58005 35118 ft 537 kts 57°
2026-05-09 19:40 47.46957 -60.50196 35108 ft 537 kts 58°
2026-05-09 19:41 47.50876 -60.40781 35106 ft 538 kts 58°
2026-05-09 19:41 47.54790 -60.31349 35107 ft 538 kts 58°
2026-05-09 19:42 47.58697 -60.21897 35107 ft 538 kts 58°
2026-05-09 19:42 47.62597 -60.12433 35111 ft 538 kts 58°
2026-05-09 19:43 47.66494 -60.02941 35109 ft 539 kts 58°
2026-05-09 19:43 47.70361 -59.93491 35109 ft 539 kts 58°
2026-05-09 19:44 47.74246 -59.83961 35117 ft 539 kts 58°
2026-05-09 19:44 47.78127 -59.74409 35114 ft 540 kts 58°
2026-05-09 19:45 47.82000 -59.64842 35115 ft 540 kts 58°
2026-05-09 19:45 47.85865 -59.55260 35114 ft 540 kts 58°
2026-05-09 19:46 47.89719 -59.45673 35117 ft 540 kts 59°
2026-05-09 19:46 47.93558 -59.36056 35118 ft 539 kts 59°
2026-05-09 19:47 47.97388 -59.26430 35111 ft 539 kts 59°
2026-05-09 19:47 48.01213 -59.16817 35111 ft 538 kts 59°
2026-05-09 19:48 48.05045 -59.07201 35108 ft 538 kts 59°
2026-05-09 19:48 48.08851 -58.97582 35102 ft 538 kts 59°
2026-05-09 19:49 48.12615 -58.88008 35101 ft 537 kts 59°
2026-05-09 19:49 48.16394 -58.78360 35105 ft 537 kts 59°
2026-05-09 19:50 48.20169 -58.68694 35097 ft 538 kts 59°
2026-05-09 19:50 48.23941 -58.59000 35098 ft 538 kts 60°
2026-05-09 19:51 48.27708 -58.49286 35096 ft 538 kts 60°
2026-05-09 19:51 48.31471 -58.39550 35103 ft 539 kts 60°
2026-05-09 19:52 48.35225 -58.29796 35086 ft 539 kts 60°
2026-05-09 19:52 48.38970 -58.20033 35091 ft 539 kts 60°
2026-05-09 19:53 48.42707 -58.10252 35084 ft 539 kts 60°
2026-05-09 19:53 48.46411 -58.00525 35086 ft 539 kts 61°
2026-05-09 19:54 48.50131 -57.90717 35095 ft 539 kts 61°
2026-05-09 19:54 48.53848 -57.80881 35081 ft 539 kts 61°
2026-05-09 19:55 48.57555 -57.71036 35087 ft 540 kts 61°
2026-05-09 19:56 48.63108 -57.56218 35067 ft 540 kts 62°
2026-05-09 19:56 48.66801 -57.46318 35067 ft 540 kts 62°
2026-05-09 19:57 48.70491 -57.36389 35066 ft 540 kts 62°
2026-05-09 19:57 48.74170 -57.26449 35057 ft 540 kts 62°
2026-05-09 19:58 48.77841 -57.16495 35039 ft 540 kts 62°
2026-05-09 19:58 48.81475 -57.06604 35038 ft 540 kts 62°
2026-05-09 19:59 48.85123 -56.96638 35031 ft 540 kts 62°
2026-05-09 19:59 48.88770 -56.86635 35031 ft 540 kts 62°
2026-05-09 20:00 48.92403 -56.76633 35028 ft 541 kts 62°
2026-05-09 20:00 48.96030 -56.66607 35039 ft 541 kts 62°
2026-05-09 20:01 48.99645 -56.56579 35043 ft 540 kts 63°
2026-05-09 20:01 49.03253 -56.46532 35046 ft 540 kts 63°
2026-05-09 20:02 49.06824 -56.36547 35041 ft 539 kts 63°
2026-05-09 20:02 49.10404 -56.26497 35048 ft 539 kts 63°
2026-05-09 20:03 49.15755 -56.11407 35061 ft 538 kts 63°
2026-05-09 20:03 49.19311 -56.01329 35062 ft 538 kts 64°
2026-05-09 20:04 49.22858 -55.91236 35062 ft 538 kts 64°
2026-05-09 20:04 49.26394 -55.81136 35062 ft 538 kts 64°
2026-05-09 20:05 49.29920 -55.71025 35068 ft 539 kts 64°